Location: Bakov nad Jizerou
(50.4784°N, 14.9394°E)
Time: 07:12:31
(UTC+00:00)

Cosmos 968 Rocket - Pass Details

Date: 16 June 2021
Orbit: 741 x 770 km, 74.0° (Epoch: 28 July)

Event Time Altitude Azimuth Distance (km) Brightness Sun altitude
Rises 20:41:45 0° 339° (NNW) 3,191 8.7 -10.0°
Reaches altitude 10° 20:44:14 10° 345° (NNW) 2,264 7.3 -10.2°
Maximum altitude 20:49:08 44° 58° (ENE) 1,021 4.2 -10.6°
Enters shadow 20:53:31 13° 129° (SE) 2,078 5.2 -10.9°
